Time,TemperatureF,DewpointF,PressureIn,WindDirection,WindDirectionDegrees,WindSpeedMPH,WindSpeedGustMPH,Humidity,HourlyPrecipIn,Conditions,Clouds,dailyrainin,SoftwareType,DateUTC
2013-07-07 00:11:00,65.6,64.0,30.06,SSE,165,1.0,4.0,96,0.11,,,0.03,weatherlink.com 1.10,2013-07-07 05:11:00,
2013-07-07 00:27:00,65.4,64.0,30.03,SW,219,1.0,4.0,96,0.12,,,0.08,weatherlink.com 1.10,2013-07-07 05:27:00,
2013-07-07 00:45:00,65.2,64.0,30.03,SSE,168,1.0,3.0,96,0.10,,,0.08,weatherlink.com 1.10,2013-07-07 05:45:00,
2013-07-07 01:01:00,65.2,64.0,30.02,South,188,1.0,5.0,96,0.08,,,0.08,weatherlink.com 1.10,2013-07-07 06:01:00,
2013-07-07 01:17:00,65.1,64.0,30.02,SSW,209,0.0,4.0,96,0.03,,,0.08,weatherlink.com 1.10,2013-07-07 06:17:00,
2013-07-07 01:35:00,65.0,64.0,30.02,SSW,192,0.0,3.0,96,0.00,,,0.08,weatherlink.com 1.10,2013-07-07 06:35:00,
2013-07-07 01:51:00,64.9,64.0,30.03,South,187,1.0,4.0,97,0.01,,,0.09,weatherlink.com 1.10,2013-07-07 06:51:00,
2013-07-07 02:07:00,65.0,64.0,30.03,SW,223,1.0,6.0,97,0.01,,,0.09,weatherlink.com 1.10,2013-07-07 07:07:00,
2013-07-07 02:23:00,65.2,64.0,30.03,SSE,163,1.0,4.0,97,0.01,,,0.09,weatherlink.com 1.10,2013-07-07 07:23:00,
2013-07-07 02:40:00,65.1,64.0,30.03,SW,219,0.0,1.0,97,0.01,,,0.09,weatherlink.com 1.10,2013-07-07 07:40:00,
2013-07-07 02:56:00,65.1,64.0,30.02,SSW,194,1.0,4.0,97,0.00,,,0.09,weatherlink.com 1.10,2013-07-07 07:56:00,
2013-07-07 03:12:00,65.0,64.0,30.02,SSW,205,0.0,3.0,97,0.00,,,0.09,weatherlink.com 1.10,2013-07-07 08:12:00,
2013-07-07 03:28:00,64.8,64.0,30.03,SSW,206,0.0,1.0,97,0.00,,,0.09,weatherlink.com 1.10,2013-07-07 08:28:00,
2013-07-07 03:46:00,64.1,63.0,30.03,SSW,206,0.0,0.0,97,0.00,,,0.09,weatherlink.com 1.10,2013-07-07 08:46:00,
2013-07-07 04:02:00,64.0,63.0,30.04,SSW,205,0.0,1.0,97,0.00,,,0.09,weatherlink.com 1.10,2013-07-07 09:02:00,
2013-07-07 04:18:00,64.1,63.0,30.04,SSW,207,0.0,1.0,97,0.00,,,0.09,weatherlink.com 1.10,2013-07-07 09:18:00,
2013-07-07 04:35:00,63.9,63.0,30.04,SSW,207,0.0,0.0,97,0.00,,,0.09,weatherlink.com 1.10,2013-07-07 09:35:00,
2013-07-07 04:51:00,63.4,63.0,30.04,SSW,207,0.0,0.0,97,0.00,,,0.09,weatherlink.com 1.10,2013-07-07 09:51:00,
2013-07-07 05:08:00,63.2,62.0,30.05,SSW,207,0.0,0.0,97,0.00,,,0.09,weatherlink.com 1.10,2013-07-07 10:08:00,
2013-07-07 05:24:00,64.0,63.0,30.05,SSW,207,0.0,0.0,98,0.00,,,0.09,weatherlink.com 1.10,2013-07-07 10:24:00,
2013-07-07 05:42:00,63.8,63.0,30.05,SSW,207,0.0,0.0,98,0.00,,,0.09,weatherlink.com 1.10,2013-07-07 10:42:00,
2013-07-07 05:58:00,63.9,63.0,30.06,SSW,207,0.0,0.0,98,0.00,,,0.09,weatherlink.com 1.10,2013-07-07 10:58:00,
2013-07-07 06:14:00,64.1,64.0,30.06,SSW,207,0.0,0.0,98,0.00,,,0.09,weatherlink.com 1.10,2013-07-07 11:14:00,
2013-07-07 06:30:00,64.6,64.0,30.06,SSW,207,0.0,1.0,98,0.00,,,0.09,weatherlink.com 1.10,2013-07-07 11:30:00,
2013-07-07 06:48:00,65.2,65.0,30.07,SSW,205,0.0,0.0,98,0.00,,,0.09,weatherlink.com 1.10,2013-07-07 11:48:00,
2013-07-07 07:04:00,65.8,65.0,30.07,SSW,205,0.0,0.0,98,0.00,,,0.09,weatherlink.com 1.10,2013-07-07 12:04:00,
2013-07-07 07:20:00,66.3,66.0,30.08,SSW,210,1.0,2.0,98,0.00,,,0.09,weatherlink.com 1.10,2013-07-07 12:20:00,
2013-07-07 07:38:00,67.0,66.0,30.08,SSW,205,2.0,4.0,97,0.00,,,0.09,weatherlink.com 1.10,2013-07-07 12:38:00,
2013-07-07 07:54:00,67.9,67.0,30.09,SSW,193,0.0,1.0,96,0.00,,,0.09,weatherlink.com 1.10,2013-07-07 12:54:00,
2013-07-07 08:10:00,68.9,67.0,30.09,SSW,213,3.0,3.0,95,0.00,,,0.09,weatherlink.com 1.10,2013-07-07 13:10:00,
2013-07-07 08:26:00,69.9,68.0,30.09,WSW,244,0.0,1.0,94,0.00,,,0.09,weatherlink.com 1.10,2013-07-07 13:26:00,
2013-07-07 08:45:00,70.9,68.0,30.09,SSW,197,0.0,2.0,92,0.00,,,0.09,weatherlink.com 1.10,2013-07-07 13:45:00,
2013-07-07 09:00:00,72.9,70.0,30.09,South,172,3.0,4.0,90,0.00,,,0.09,weatherlink.com 1.10,2013-07-07 14:00:00,
2013-07-07 09:16:00,74.6,71.0,30.10,SSW,202,5.0,5.0,90,0.00,,,0.09,weatherlink.com 1.10,2013-07-07 14:16:00,
2013-07-07 09:34:00,76.4,72.0,30.09,West,274,1.0,4.0,87,0.00,,,0.09,weatherlink.com 1.10,2013-07-07 14:34:00,
2013-07-07 09:51:00,76.5,72.0,30.09,SSW,207,1.0,3.0,87,0.00,,,0.09,weatherlink.com 1.10,2013-07-07 14:51:00,
2013-07-07 10:07:00,78.5,73.0,30.09,SE,141,2.0,5.0,83,0.00,,,0.09,weatherlink.com 1.10,2013-07-07 15:07:00,
2013-07-07 10:23:00,79.7,74.0,30.10,SW,234,0.0,5.0,83,0.00,,,0.09,weatherlink.com 1.10,2013-07-07 15:23:00,
2013-07-07 10:40:00,79.3,74.0,30.10,SW,234,0.0,2.0,83,0.00,,,0.09,weatherlink.com 1.10,2013-07-07 15:40:00,
2013-07-07 10:56:00,80.1,73.0,30.10,ENE,61,1.0,2.0,80,0.00,,,0.09,weatherlink.com 1.10,2013-07-07 15:56:00,
2013-07-07 11:13:00,81.6,74.0,30.09,WSW,243,1.0,4.0,78,0.00,,,0.09,weatherlink.com 1.10,2013-07-07 16:13:00,
2013-07-07 11:29:00,82.7,73.0,30.09,West,271,1.0,3.0,73,0.00,,,0.09,weatherlink.com 1.10,2013-07-07 16:29:00,
2013-07-07 11:48:00,81.2,73.0,30.08,East,88,0.0,2.0,76,0.00,,,0.09,weatherlink.com 1.10,2013-07-07 16:48:00,
2013-07-07 12:04:00,83.6,74.0,30.08,NE,50,2.0,4.0,72,0.00,,,0.09,weatherlink.com 1.10,2013-07-07 17:04:00,
2013-07-07 12:20:00,82.5,73.0,30.08,NE,35,0.0,4.0,74,0.00,,,0.09,weatherlink.com 1.10,2013-07-07 17:20:00,
2013-07-07 12:38:00,84.4,73.0,30.07,West,272,0.0,3.0,69,0.00,,,0.09,weatherlink.com 1.10,2013-07-07 17:38:00,
2013-07-07 12:55:00,85.9,72.0,30.07,East,88,0.0,2.0,63,0.00,,,0.09,weatherlink.com 1.10,2013-07-07 17:55:00,
2013-07-07 13:11:00,86.2,72.0,30.07,SW,232,1.0,5.0,63,0.00,,,0.09,weatherlink.com 1.10,2013-07-07 18:11:00,
2013-07-07 13:28:00,86.5,71.0,30.06,NNW,331,3.0,4.0,61,0.00,,,0.09,weatherlink.com 1.10,2013-07-07 18:28:00,
2013-07-07 13:47:00,84.7,71.0,30.06,WNW,291,0.0,1.0,63,0.00,,,0.09,weatherlink.com 1.10,2013-07-07 18:47:00,
2013-07-07 14:03:00,84.8,73.0,30.06,WSW,255,0.0,1.0,69,0.00,,,0.09,weatherlink.com 1.10,2013-07-07 19:03:00,
2013-07-07 14:20:00,86.3,71.0,30.05,NE,35,0.0,3.0,61,0.00,,,0.09,weatherlink.com 1.10,2013-07-07 19:20:00,
2013-07-07 14:37:00,86.7,69.0,30.05,North,355,1.0,3.0,55,0.00,,,0.09,weatherlink.com 1.10,2013-07-07 19:37:00,
2013-07-07 14:53:00,87.0,70.0,30.04,ENE,65,1.0,3.0,58,0.00,,,0.09,weatherlink.com 1.10,2013-07-07 19:53:00,
2013-07-07 15:09:00,87.4,71.0,30.04,NNE,15,0.0,3.0,59,0.00,,,0.09,weatherlink.com 1.10,2013-07-07 20:09:00,
2013-07-07 15:25:00,88.1,70.0,30.04,West,263,2.0,4.0,56,0.00,,,0.09,weatherlink.com 1.10,2013-07-07 20:25:00,
2013-07-07 15:43:00,88.7,68.0,30.03,East,101,1.0,3.0,50,0.00,,,0.09,weatherlink.com 1.10,2013-07-07 20:43:00,
2013-07-07 15:59:00,89.4,69.0,30.03,South,179,1.0,3.0,52,0.00,,,0.09,weatherlink.com 1.10,2013-07-07 20:59:00,
2013-07-07 16:15:00,89.2,70.0,30.03,SW,230,3.0,7.0,53,0.00,,,0.09,weatherlink.com 1.10,2013-07-07 21:15:00,
2013-07-07 16:31:00,88.0,71.0,30.02,SW,217,2.0,6.0,58,0.00,,,0.09,weatherlink.com 1.10,2013-07-07 21:31:00,
2013-07-07 16:49:00,86.6,72.0,30.02,SW,231,1.0,6.0,61,0.00,,,0.09,weatherlink.com 1.10,2013-07-07 21:49:00,
2013-07-07 17:05:00,87.5,70.0,30.02,SW,225,2.0,6.0,57,0.00,,,0.09,weatherlink.com 1.10,2013-07-07 22:05:00,
2013-07-07 17:21:00,88.2,72.0,30.02,SSE,154,1.0,7.0,58,0.00,,,0.09,weatherlink.com 1.10,2013-07-07 22:21:00,
2013-07-07 17:38:00,88.4,73.0,30.01,SW,232,1.0,3.0,60,0.00,,,0.09,weatherlink.com 1.10,2013-07-07 22:38:00,
2013-07-07 17:54:00,85.4,71.0,30.01,SSW,205,1.0,3.0,63,0.00,,,0.09,weatherlink.com 1.10,2013-07-07 22:54:00,
2013-07-07 18:11:00,86.5,72.0,30.01,SSW,212,1.0,4.0,62,0.00,,,0.09,weatherlink.com 1.10,2013-07-07 23:11:00,
2013-07-07 18:27:00,86.6,73.0,30.02,SW,217,1.0,4.0,63,0.00,,,0.09,weatherlink.com 1.10,2013-07-07 23:27:00,
2013-07-07 18:45:00,86.4,72.0,30.02,SW,225,1.0,4.0,63,0.00,,,0.09,weatherlink.com 1.10,2013-07-07 23:45:00,
2013-07-07 19:02:00,85.8,72.0,30.02,WSW,241,0.0,4.0,63,0.00,,,0.09,weatherlink.com 1.10,2013-07-08 00:02:00,
2013-07-07 19:18:00,84.1,72.0,30.03,SW,233,0.0,1.0,68,0.00,,,0.09,weatherlink.com 1.10,2013-07-08 00:18:00,
2013-07-07 19:35:00,82.4,72.0,30.03,SW,219,0.0,2.0,70,0.00,,,0.09,weatherlink.com 1.10,2013-07-08 00:35:00,
2013-07-07 19:51:00,80.8,73.0,30.03,SW,219,0.0,0.0,77,0.00,,,0.09,weatherlink.com 1.10,2013-07-08 00:51:00,
2013-07-07 20:07:00,79.0,72.0,30.04,SW,219,0.0,0.0,80,0.00,,,0.09,weatherlink.com 1.10,2013-07-08 01:07:00,
2013-07-07 20:23:00,77.5,72.0,30.04,SW,219,0.0,0.0,82,0.00,,,0.09,weatherlink.com 1.10,2013-07-08 01:23:00,
2013-07-07 20:42:00,75.6,71.0,30.04,SW,219,0.0,0.0,85,0.00,,,0.09,weatherlink.com 1.10,2013-07-08 01:42:00,
2013-07-07 20:58:00,74.8,71.0,30.05,SW,219,0.0,0.0,88,0.00,,,0.09,weatherlink.com 1.10,2013-07-08 01:58:00,
2013-07-07 21:14:00,74.1,71.0,30.06,SW,219,0.0,0.0,89,0.00,,,0.09,weatherlink.com 1.10,2013-07-08 02:14:00,
2013-07-07 21:30:00,73.3,70.0,30.06,SW,219,0.0,0.0,90,0.00,,,0.09,weatherlink.com 1.10,2013-07-08 02:30:00,
2013-07-07 21:47:00,72.9,70.0,30.07,SW,219,0.0,0.0,91,0.00,,,0.09,weatherlink.com 1.10,2013-07-08 02:47:00,
2013-07-07 22:03:00,72.2,70.0,30.07,SW,219,0.0,0.0,92,0.00,,,0.09,weatherlink.com 1.10,2013-07-08 03:03:00,
2013-07-07 22:19:00,71.8,70.0,30.07,SW,219,0.0,0.0,93,0.00,,,0.09,weatherlink.com 1.10,2013-07-08 03:19:00,
2013-07-07 22:49:00,71.2,69.0,30.07,SW,219,0.0,0.0,94,0.00,,,0.09,weatherlink.com 1.10,2013-07-08 03:49:00,
2013-07-07 23:05:00,70.9,69.0,30.08,SW,219,0.0,0.0,95,0.00,,,0.09,weatherlink.com 1.10,2013-07-08 04:05:00,
2013-07-07 23:21:00,70.7,69.0,30.08,SW,219,0.0,0.0,95,0.00,,,0.09,weatherlink.com 1.10,2013-07-08 04:21:00,
2013-07-07 23:38:00,70.3,69.0,30.08,SW,219,0.0,0.0,96,0.00,,,0.09,weatherlink.com 1.10,2013-07-08 04:38:00,
2013-07-07 23:54:00,69.8,69.0,30.08,SW,219,0.0,0.0,96,0.00,,,0.09,weatherlink.com 1.10,2013-07-08 04:54:00,